Year,Month,Day,Hour,Minute,Value (Times are PST for temperature in C)
2016,05,05,00,00,10.70
2016,05,05,00,01,10.70
2016,05,05,00,02,10.70
2016,05,05,00,03,10.70
2016,05,05,00,04,10.60
2016,05,05,00,05,10.60
2016,05,05,00,06,10.60
2016,05,05,00,07,10.60
2016,05,05,00,08,10.50
2016,05,05,00,09,10.50
2016,05,05,00,10,10.50
2016,05,05,00,11,10.40
2016,05,05,00,12,10.40
2016,05,05,00,13,10.40
2016,05,05,00,14,10.40
2016,05,05,00,15,10.30
2016,05,05,00,16,10.30
2016,05,05,00,17,10.30
2016,05,05,00,18,10.30
2016,05,05,00,19,10.30
2016,05,05,00,20,10.30
2016,05,05,00,21,10.30
2016,05,05,00,22,10.30
2016,05,05,00,23,10.30
2016,05,05,00,24,10.20
2016,05,05,00,25,10.20
2016,05,05,00,26,10.20
2016,05,05,00,27,10.30
2016,05,05,00,28,10.30
2016,05,05,00,29,10.30
2016,05,05,00,30,10.30
2016,05,05,00,31,10.30
2016,05,05,00,32,10.30
2016,05,05,00,33,10.30
2016,05,05,00,34,10.30
2016,05,05,00,35,10.30
2016,05,05,00,36,10.20
2016,05,05,00,37,10.30
2016,05,05,00,38,10.30
2016,05,05,00,39,10.30
2016,05,05,00,40,10.30
2016,05,05,00,41,10.30
2016,05,05,00,42,10.30
2016,05,05,00,43,10.30
2016,05,05,00,44,10.30
2016,05,05,00,45,10.30
2016,05,05,00,46,10.30
2016,05,05,00,47,10.30
2016,05,05,00,48,10.30
2016,05,05,00,49,10.30
2016,05,05,00,50,10.30
2016,05,05,00,51,10.30
2016,05,05,00,52,10.30
2016,05,05,00,53,10.30
2016,05,05,00,54,10.30
2016,05,05,00,55,10.20
2016,05,05,00,56,10.20
2016,05,05,00,57,10.20
2016,05,05,00,58,10.20
2016,05,05,00,59,10.20
2016,05,05,01,00,10.20
2016,05,05,01,01,10.10
2016,05,05,01,02,10.10
2016,05,05,01,03,10.10
2016,05,05,01,04,10.10
2016,05,05,01,05,10.10
2016,05,05,01,06,10.00
2016,05,05,01,07,10.00
2016,05,05,01,08,10.00
2016,05,05,01,09,10.00
2016,05,05,01,10,10.00
2016,05,05,01,11,10.00
2016,05,05,01,12,10.00
2016,05,05,01,13,10.00
2016,05,05,01,14,10.00
2016,05,05,01,15,10.00
2016,05,05,01,16,10.00
2016,05,05,01,17,10.00
2016,05,05,01,18,10.00
2016,05,05,01,19,9.90
2016,05,05,01,20,9.90
2016,05,05,01,21,9.90
2016,05,05,01,22,9.90
2016,05,05,01,23,9.90
2016,05,05,01,24,9.90
2016,05,05,01,25,9.90
2016,05,05,01,26,9.90
2016,05,05,01,27,9.90
2016,05,05,01,28,9.90
2016,05,05,01,29,9.90
2016,05,05,01,30,9.90
2016,05,05,01,31,9.90
2016,05,05,01,32,9.90
2016,05,05,01,33,9.90
2016,05,05,01,34,9.90
2016,05,05,01,35,9.80
2016,05,05,01,36,9.80
2016,05,05,01,37,9.80
2016,05,05,01,38,9.80
2016,05,05,01,39,9.70
2016,05,05,01,40,9.70
2016,05,05,01,41,9.70
2016,05,05,01,42,9.70
2016,05,05,01,43,9.70
2016,05,05,01,44,9.70
2016,05,05,01,45,9.70
2016,05,05,01,46,9.70
2016,05,05,01,47,9.70
2016,05,05,01,48,9.60
2016,05,05,01,49,9.60
2016,05,05,01,50,9.60
2016,05,05,01,51,9.60
2016,05,05,01,52,9.60
2016,05,05,01,53,9.60
2016,05,05,01,54,9.60
2016,05,05,01,55,9.60
2016,05,05,01,56,9.60
2016,05,05,01,57,9.50
2016,05,05,01,58,9.50
2016,05,05,01,59,9.50
2016,05,05,02,00,9.50
2016,05,05,02,01,9.40
2016,05,05,02,02,9.40
2016,05,05,02,03,9.40
2016,05,05,02,04,9.40
2016,05,05,02,05,9.30
2016,05,05,02,06,9.30
2016,05,05,02,07,9.30
2016,05,05,02,08,9.30
2016,05,05,02,09,9.30
2016,05,05,02,10,9.30
2016,05,05,02,11,9.30
2016,05,05,02,12,9.30
2016,05,05,02,13,9.30
2016,05,05,02,14,9.30
2016,05,05,02,15,9.30
2016,05,05,02,16,9.20
2016,05,05,02,17,9.20
2016,05,05,02,18,9.20
2016,05,05,02,19,9.20
2016,05,05,02,20,9.20
2016,05,05,02,21,9.20
2016,05,05,02,22,9.20
2016,05,05,02,23,9.20
2016,05,05,02,24,9.10
2016,05,05,02,25,9.10
2016,05,05,02,26,9.10
2016,05,05,02,27,9.10
2016,05,05,02,28,9.10
2016,05,05,02,29,9.10
2016,05,05,02,30,9.10
2016,05,05,02,31,9.10
2016,05,05,02,32,9.10
2016,05,05,02,33,9.10
2016,05,05,02,34,9.10
2016,05,05,02,35,9.10
2016,05,05,02,36,9.10
2016,05,05,02,37,9.10
2016,05,05,02,38,9.10
2016,05,05,02,39,9.10
2016,05,05,02,40,9.10
2016,05,05,02,41,9.10
2016,05,05,02,42,9.00
2016,05,05,02,43,9.00
2016,05,05,02,44,9.00
2016,05,05,02,45,9.00
2016,05,05,02,46,9.00
2016,05,05,02,47,9.00
2016,05,05,02,48,8.90
2016,05,05,02,49,8.90
2016,05,05,02,50,8.90
2016,05,05,02,51,8.90
2016,05,05,02,52,8.90
2016,05,05,02,53,8.90
2016,05,05,02,54,8.90
2016,05,05,02,55,8.90
2016,05,05,02,56,8.90
2016,05,05,02,57,8.90
2016,05,05,02,58,8.80
2016,05,05,02,59,8.80
2016,05,05,03,00,8.80
2016,05,05,03,01,8.80
2016,05,05,03,02,8.80
2016,05,05,03,03,8.80
2016,05,05,03,04,8.80
2016,05,05,03,05,8.80
2016,05,05,03,06,8.80
2016,05,05,03,07,8.80
2016,05,05,03,08,8.80
2016,05,05,03,09,8.80
2016,05,05,03,10,8.80
2016,05,05,03,11,8.80
2016,05,05,03,12,8.80
2016,05,05,03,13,8.80
2016,05,05,03,14,8.80
2016,05,05,03,15,8.70
2016,05,05,03,16,8.70
2016,05,05,03,17,8.70
2016,05,05,03,18,8.60
2016,05,05,03,19,8.60
2016,05,05,03,20,8.60
2016,05,05,03,21,8.50
2016,05,05,03,22,8.50
2016,05,05,03,23,8.50
2016,05,05,03,24,8.40
2016,05,05,03,25,8.40
2016,05,05,03,26,8.40
2016,05,05,03,27,8.40
2016,05,05,03,28,8.40
2016,05,05,03,29,8.40
2016,05,05,03,30,8.40
2016,05,05,03,31,8.30
2016,05,05,03,32,8.30
2016,05,05,03,33,8.30
2016,05,05,03,34,8.30
2016,05,05,03,35,8.30
2016,05,05,03,36,8.30
2016,05,05,03,37,8.30
2016,05,05,03,38,8.30
2016,05,05,03,39,8.30
2016,05,05,03,40,8.20
2016,05,05,03,41,8.20
2016,05,05,03,42,8.20
2016,05,05,03,43,8.20
2016,05,05,03,44,8.20
2016,05,05,03,45,8.10
2016,05,05,03,46,8.10
2016,05,05,03,47,8.10
2016,05,05,03,48,8.10
2016,05,05,03,49,8.00
2016,05,05,03,50,8.00
2016,05,05,03,51,8.00
2016,05,05,03,52,8.10
2016,05,05,03,53,8.10
2016,05,05,03,54,8.10
2016,05,05,03,55,8.10
2016,05,05,03,56,8.10
2016,05,05,03,57,8.10
2016,05,05,03,58,8.00
2016,05,05,03,59,8.00
2016,05,05,04,00,8.00
2016,05,05,04,01,8.00
2016,05,05,04,02,8.00
2016,05,05,04,03,8.00
2016,05,05,04,04,8.00
2016,05,05,04,05,8.00
2016,05,05,04,06,8.00
2016,05,05,04,07,8.00
2016,05,05,04,08,7.90
2016,05,05,04,09,7.90
2016,05,05,04,10,7.90
2016,05,05,04,11,7.90
2016,05,05,04,12,7.90
2016,05,05,04,13,7.90
2016,05,05,04,14,7.90
2016,05,05,04,15,7.90
2016,05,05,04,16,7.90
2016,05,05,04,17,7.80
2016,05,05,04,18,7.90
2016,05,05,04,19,7.90
2016,05,05,04,20,8.00
2016,05,05,04,21,8.00
2016,05,05,04,22,8.10
2016,05,05,04,23,8.10
2016,05,05,04,24,8.10
2016,05,05,04,25,8.10
2016,05,05,04,26,8.10
2016,05,05,04,27,8.10
2016,05,05,04,28,8.10
2016,05,05,04,29,8.00
2016,05,05,04,30,8.00
2016,05,05,04,31,8.00
2016,05,05,04,32,8.00
2016,05,05,04,33,8.10
2016,05,05,04,34,8.10
2016,05,05,04,35,8.10
2016,05,05,04,36,8.10
2016,05,05,04,37,8.10
2016,05,05,04,38,8.10
2016,05,05,04,39,8.10
2016,05,05,04,40,8.10
2016,05,05,04,41,8.10
2016,05,05,04,42,8.00
2016,05,05,04,43,8.00
2016,05,05,04,44,8.00
2016,05,05,04,45,8.00
2016,05,05,04,46,7.90
2016,05,05,04,47,7.90
2016,05,05,04,48,7.90
2016,05,05,04,49,7.90
2016,05,05,04,50,7.90
2016,05,05,04,51,7.90
2016,05,05,04,52,7.90
2016,05,05,04,53,7.90
2016,05,05,04,54,7.90
2016,05,05,04,55,7.90
2016,05,05,04,56,7.90
2016,05,05,04,57,7.90
2016,05,05,04,58,7.90
2016,05,05,04,59,7.90
2016,05,05,05,00,7.90
2016,05,05,05,01,7.90
2016,05,05,05,02,7.90
2016,05,05,05,03,7.90
2016,05,05,05,04,7.80
2016,05,05,05,05,7.80
2016,05,05,05,06,7.80
2016,05,05,05,07,7.90
2016,05,05,05,08,7.90
2016,05,05,05,09,7.80
2016,05,05,05,10,7.80
2016,05,05,05,11,7.80
2016,05,05,05,12,7.80
2016,05,05,05,13,7.80
2016,05,05,05,14,7.80
2016,05,05,05,15,7.80
2016,05,05,05,16,7.80
2016,05,05,05,17,7.80
2016,05,05,05,18,7.70
2016,05,05,05,19,7.70
2016,05,05,05,20,7.70
2016,05,05,05,21,7.70
2016,05,05,05,22,7.70
2016,05,05,05,23,7.70
2016,05,05,05,24,7.70
2016,05,05,05,25,7.70
2016,05,05,05,26,7.70
2016,05,05,05,27,7.70
2016,05,05,05,28,7.70
2016,05,05,05,29,7.70
2016,05,05,05,30,7.70
2016,05,05,05,31,7.60
2016,05,05,05,32,7.60
2016,05,05,05,33,7.60
2016,05,05,05,34,7.60
2016,05,05,05,35,7.60
2016,05,05,05,36,7.60
2016,05,05,05,37,7.60
2016,05,05,05,38,7.60
2016,05,05,05,39,7.60
2016,05,05,05,40,7.50
2016,05,05,05,41,7.50
2016,05,05,05,42,7.60
2016,05,05,05,43,7.60
2016,05,05,05,44,7.50
2016,05,05,05,45,7.50
2016,05,05,05,46,7.50
2016,05,05,05,47,7.50
2016,05,05,05,48,7.40
2016,05,05,05,49,7.40
2016,05,05,05,50,7.40
2016,05,05,05,51,7.40
2016,05,05,05,52,7.40
2016,05,05,05,53,7.40
2016,05,05,05,54,7.40
2016,05,05,05,55,7.40
2016,05,05,05,56,7.30
2016,05,05,05,57,7.30
2016,05,05,05,58,7.30
2016,05,05,05,59,7.30
2016,05,05,06,00,7.30
2016,05,05,06,01,7.30
2016,05,05,06,02,7.30
2016,05,05,06,03,7.30
2016,05,05,06,04,7.30
2016,05,05,06,05,7.40
2016,05,05,06,06,7.40
2016,05,05,06,07,7.40
2016,05,05,06,08,7.40
2016,05,05,06,09,7.40
2016,05,05,06,10,7.40
2016,05,05,06,11,7.50
2016,05,05,06,12,7.50
2016,05,05,06,13,7.50
2016,05,05,06,14,7.50
2016,05,05,06,15,7.50
2016,05,05,06,16,7.50
2016,05,05,06,17,7.50
2016,05,05,06,18,7.50
2016,05,05,06,19,7.50
2016,05,05,06,20,7.50
2016,05,05,06,21,7.60
2016,05,05,06,22,7.50
2016,05,05,06,23,7.60
2016,05,05,06,24,7.60
2016,05,05,06,25,7.60
2016,05,05,06,26,7.60
2016,05,05,06,27,7.60
2016,05,05,06,28,7.60
2016,05,05,06,29,7.60
2016,05,05,06,30,7.60
2016,05,05,06,31,7.60
2016,05,05,06,32,7.60
2016,05,05,06,33,7.60
2016,05,05,06,34,7.60
2016,05,05,06,35,7.60
2016,05,05,06,36,7.60
2016,05,05,06,37,7.60
2016,05,05,06,38,7.70
2016,05,05,06,39,7.70
2016,05,05,06,40,7.70
2016,05,05,06,41,7.70
2016,05,05,06,42,7.70
2016,05,05,06,43,7.70
2016,05,05,06,44,7.80
2016,05,05,06,45,7.80
2016,05,05,06,46,7.80
2016,05,05,06,47,7.80
2016,05,05,06,48,7.80
2016,05,05,06,49,7.90
2016,05,05,06,50,7.90
2016,05,05,06,51,7.90
2016,05,05,06,52,8.00
2016,05,05,06,53,8.00
2016,05,05,06,54,8.00
2016,05,05,06,55,8.00
2016,05,05,06,56,8.10
2016,05,05,06,57,8.10
2016,05,05,06,58,8.10
2016,05,05,06,59,8.20
2016,05,05,07,00,8.20
2016,05,05,07,01,8.30
2016,05,05,07,02,8.30
2016,05,05,07,03,8.30
2016,05,05,07,04,8.40
2016,05,05,07,05,8.40
2016,05,05,07,06,8.40
2016,05,05,07,07,8.50
2016,05,05,07,08,8.50
2016,05,05,07,09,8.60
2016,05,05,07,10,8.60
2016,05,05,07,11,8.60
2016,05,05,07,12,8.70
2016,05,05,07,13,8.70
2016,05,05,07,14,8.70
2016,05,05,07,15,8.80
2016,05,05,07,16,8.80
2016,05,05,07,17,8.80
2016,05,05,07,18,8.90
2016,05,05,07,19,8.90
2016,05,05,07,20,9.00
2016,05,05,07,21,9.00
2016,05,05,07,22,9.00
2016,05,05,07,23,9.10
2016,05,05,07,24,9.10
2016,05,05,07,25,9.10
2016,05,05,07,26,9.20
2016,05,05,07,27,9.20
2016,05,05,07,28,9.20
2016,05,05,07,29,9.20
2016,05,05,07,30,9.30
2016,05,05,07,31,9.30
2016,05,05,07,32,9.30
2016,05,05,07,33,9.40
2016,05,05,07,34,9.40
2016,05,05,07,35,9.40
2016,05,05,07,36,9.50
2016,05,05,07,37,9.50
2016,05,05,07,38,9.60
2016,05,05,07,39,9.60
2016,05,05,07,40,9.70
2016,05,05,07,41,9.70
2016,05,05,07,42,9.70
2016,05,05,07,43,9.70
2016,05,05,07,44,9.80
2016,05,05,07,45,9.80
2016,05,05,07,46,9.80
2016,05,05,07,47,9.80
2016,05,05,07,48,9.90
2016,05,05,07,49,9.90
2016,05,05,07,50,9.90
2016,05,05,07,51,10.00
2016,05,05,07,52,10.00
2016,05,05,07,53,10.00
2016,05,05,07,54,10.10
2016,05,05,07,55,10.10
2016,05,05,07,56,10.10
2016,05,05,07,57,10.10
2016,05,05,07,58,10.10
2016,05,05,07,59,10.10
2016,05,05,08,00,10.10
2016,05,05,08,01,10.10
2016,05,05,08,02,10.20
2016,05,05,08,03,10.20
2016,05,05,08,04,10.20
2016,05,05,08,05,10.20
2016,05,05,08,06,10.20
2016,05,05,08,07,10.20
2016,05,05,08,08,10.20
2016,05,05,08,09,10.20
2016,05,05,08,10,10.30
2016,05,05,08,11,10.30
2016,05,05,08,12,10.30
2016,05,05,08,13,10.40
2016,05,05,08,14,10.40
2016,05,05,08,15,10.40
2016,05,05,08,16,10.50
2016,05,05,08,17,10.50
2016,05,05,08,18,10.50
2016,05,05,08,19,10.60
2016,05,05,08,20,10.60
2016,05,05,08,21,10.60
2016,05,05,08,22,10.70
2016,05,05,08,23,10.70
2016,05,05,08,24,10.70
2016,05,05,08,25,10.70
2016,05,05,08,26,10.70
2016,05,05,08,27,10.70
2016,05,05,08,28,10.70
2016,05,05,08,29,10.80
2016,05,05,08,30,10.80
2016,05,05,08,31,10.80
2016,05,05,08,32,10.80
2016,05,05,08,33,10.80
2016,05,05,08,34,10.80
2016,05,05,08,35,10.80
2016,05,05,08,36,10.90
2016,05,05,08,37,10.90
2016,05,05,08,38,10.90
2016,05,05,08,39,10.90
2016,05,05,08,40,10.90
2016,05,05,08,41,11.00
2016,05,05,08,42,11.00
2016,05,05,08,43,11.00
2016,05,05,08,44,11.10
2016,05,05,08,45,11.10
2016,05,05,08,46,11.10
2016,05,05,08,47,11.20
2016,05,05,08,48,11.20
2016,05,05,08,49,11.30
2016,05,05,08,50,11.30
2016,05,05,08,51,11.30
2016,05,05,08,52,11.40
2016,05,05,08,53,11.40
2016,05,05,08,54,11.40
2016,05,05,08,55,11.40
2016,05,05,08,56,11.40
2016,05,05,08,57,11.40
2016,05,05,08,58,11.40
2016,05,05,08,59,11.50
2016,05,05,09,00,11.50
2016,05,05,09,01,11.60
2016,05,05,09,02,11.60
2016,05,05,09,03,11.60
2016,05,05,09,04,11.60
2016,05,05,09,05,11.60
2016,05,05,09,06,11.60
2016,05,05,09,07,11.70
2016,05,05,09,08,11.70
2016,05,05,09,09,11.70
2016,05,05,09,10,11.70
2016,05,05,09,11,11.70
2016,05,05,09,12,11.70
2016,05,05,09,13,11.70
2016,05,05,09,14,11.70
2016,05,05,09,15,11.80
2016,05,05,09,16,11.90
2016,05,05,09,17,11.90
2016,05,05,09,18,12.00
2016,05,05,09,19,12.00
2016,05,05,09,20,12.10
2016,05,05,09,21,12.20
2016,05,05,09,22,12.20
2016,05,05,09,23,12.20
2016,05,05,09,24,12.20
2016,05,05,09,25,12.10
2016,05,05,09,26,12.10
2016,05,05,09,27,12.10
2016,05,05,09,28,12.10
2016,05,05,09,29,12.10
2016,05,05,09,30,12.10
2016,05,05,09,31,12.20
2016,05,05,09,32,12.20
2016,05,05,09,33,12.20
2016,05,05,09,34,12.20
2016,05,05,09,35,12.20
2016,05,05,09,36,12.20
2016,05,05,09,37,12.20
2016,05,05,09,38,12.20
2016,05,05,09,39,12.30
2016,05,05,09,40,12.30
2016,05,05,09,41,12.30
2016,05,05,09,42,12.40
2016,05,05,09,43,12.40
2016,05,05,09,44,12.40
2016,05,05,09,45,12.40
2016,05,05,09,46,12.40
2016,05,05,09,47,12.50
2016,05,05,09,48,12.50
2016,05,05,09,49,12.50
2016,05,05,09,50,12.50
2016,05,05,09,51,12.50
2016,05,05,09,52,12.60
2016,05,05,09,53,12.60
2016,05,05,09,54,12.60
2016,05,05,09,55,12.60
2016,05,05,09,56,12.60
2016,05,05,09,57,12.60
2016,05,05,09,58,12.60
2016,05,05,09,59,12.60
2016,05,05,10,00,12.60
2016,05,05,10,01,12.50
2016,05,05,10,02,12.50
2016,05,05,10,03,12.50
2016,05,05,10,04,12.50
2016,05,05,10,05,12.60
2016,05,05,10,06,12.60
2016,05,05,10,07,12.60
2016,05,05,10,08,12.60
2016,05,05,10,09,12.70
2016,05,05,10,10,12.70
2016,05,05,10,11,12.70
2016,05,05,10,12,12.70
2016,05,05,10,13,12.80
2016,05,05,10,14,12.80
2016,05,05,10,15,12.80
2016,05,05,10,16,12.80
2016,05,05,10,17,12.80
2016,05,05,10,18,12.80
2016,05,05,10,19,12.80
2016,05,05,10,20,12.80
2016,05,05,10,21,12.80
2016,05,05,10,22,12.80
2016,05,05,10,23,12.80
2016,05,05,10,24,12.90
2016,05,05,10,25,12.90
2016,05,05,10,26,12.90
2016,05,05,10,27,12.90
2016,05,05,10,28,12.90
2016,05,05,10,29,12.90
2016,05,05,10,30,12.90
2016,05,05,10,31,13.00
2016,05,05,10,32,13.00
2016,05,05,10,33,13.10
2016,05,05,10,34,13.10
2016,05,05,10,35,13.10
2016,05,05,10,36,13.10
2016,05,05,10,37,13.20
2016,05,05,10,38,13.20
2016,05,05,10,39,13.20
2016,05,05,10,40,13.20
2016,05,05,10,41,13.20
2016,05,05,10,42,13.20
2016,05,05,10,43,13.30
2016,05,05,10,44,13.30
2016,05,05,10,45,13.30
2016,05,05,10,46,13.40
2016,05,05,10,47,13.40
2016,05,05,10,48,13.50
2016,05,05,10,49,13.40
2016,05,05,10,50,13.40
2016,05,05,10,51,13.40
2016,05,05,10,52,13.40
2016,05,05,10,53,13.40
2016,05,05,10,54,13.40
2016,05,05,10,55,13.50
2016,05,05,10,56,13.50
2016,05,05,10,57,13.60
2016,05,05,10,58,13.70
2016,05,05,10,59,13.80
2016,05,05,11,00,13.80
2016,05,05,11,01,13.90
2016,05,05,11,02,13.90
2016,05,05,11,03,13.80
2016,05,05,11,04,13.80
2016,05,05,11,05,13.80
2016,05,05,11,06,13.80
2016,05,05,11,07,13.90
2016,05,05,11,08,13.90
2016,05,05,11,09,13.90
2016,05,05,11,10,13.90
2016,05,05,11,11,14.00
2016,05,05,11,12,14.00
2016,05,05,11,13,14.00
2016,05,05,11,14,14.00
2016,05,05,11,15,14.00
2016,05,05,11,16,14.00
2016,05,05,11,17,14.00
2016,05,05,11,18,14.00
2016,05,05,11,19,13.90
2016,05,05,11,20,13.90
2016,05,05,11,21,13.90
2016,05,05,11,22,13.90
2016,05,05,11,23,13.90
2016,05,05,11,24,13.90
2016,05,05,11,25,14.00
2016,05,05,11,26,14.00
2016,05,05,11,27,14.00
2016,05,05,11,28,14.10
2016,05,05,11,29,14.10
2016,05,05,11,30,14.10
2016,05,05,11,31,14.10
2016,05,05,11,32,14.20
2016,05,05,11,33,14.30
2016,05,05,11,34,14.30
2016,05,05,11,35,14.30
2016,05,05,11,36,14.30
2016,05,05,11,37,14.40
2016,05,05,11,38,14.40
2016,05,05,11,39,14.40
2016,05,05,11,40,14.40
2016,05,05,11,41,14.50
2016,05,05,11,42,14.50
2016,05,05,11,43,14.60
2016,05,05,11,44,14.70
2016,05,05,11,45,14.70
2016,05,05,11,46,14.60
2016,05,05,11,47,14.60
2016,05,05,11,48,14.70
2016,05,05,11,49,14.70
2016,05,05,11,50,14.70
2016,05,05,11,51,14.70
2016,05,05,11,52,14.80
2016,05,05,11,53,14.80
2016,05,05,11,54,14.80
2016,05,05,11,55,14.80
2016,05,05,11,56,14.80
2016,05,05,11,57,14.80
2016,05,05,11,58,14.80
2016,05,05,11,59,14.80
2016,05,05,12,00,14.90
2016,05,05,12,01,14.90
2016,05,05,12,02,14.90
2016,05,05,12,03,14.90
2016,05,05,12,04,15.00
2016,05,05,12,05,15.00
2016,05,05,12,06,15.10
2016,05,05,12,07,15.10
2016,05,05,12,08,15.20
2016,05,05,12,09,15.20
2016,05,05,12,10,15.20
2016,05,05,12,11,15.20
2016,05,05,12,12,15.30
2016,05,05,12,13,15.20
2016,05,05,12,14,15.20
2016,05,05,12,15,15.20
2016,05,05,12,16,15.20
2016,05,05,12,17,15.30
2016,05,05,12,18,15.30
2016,05,05,12,19,15.40
2016,05,05,12,20,15.40
2016,05,05,12,21,15.40
2016,05,05,12,22,15.50
2016,05,05,12,23,15.50
2016,05,05,12,24,15.50
2016,05,05,12,25,15.60
2016,05,05,12,26,15.60
2016,05,05,12,27,15.70
2016,05,05,12,28,15.80
2016,05,05,12,29,15.80
2016,05,05,12,30,15.80
2016,05,05,12,31,15.80
2016,05,05,12,32,15.80
2016,05,05,12,33,15.80
2016,05,05,12,34,15.80
2016,05,05,12,35,15.80
2016,05,05,12,36,15.80
2016,05,05,12,37,15.90
2016,05,05,12,38,15.90
2016,05,05,12,39,15.90
2016,05,05,12,40,15.90
2016,05,05,12,41,16.00
2016,05,05,12,42,16.00
2016,05,05,12,43,16.00
2016,05,05,12,44,16.10
2016,05,05,12,45,16.10
2016,05,05,12,46,16.20
2016,05,05,12,47,16.30
2016,05,05,12,48,16.30
2016,05,05,12,49,16.40
2016,05,05,12,50,16.50
2016,05,05,12,51,16.60
2016,05,05,12,52,16.60
2016,05,05,12,53,16.70
2016,05,05,12,54,16.70
2016,05,05,12,55,16.70
2016,05,05,12,56,16.70
2016,05,05,12,57,16.70
2016,05,05,12,58,16.80
2016,05,05,12,59,16.90
2016,05,05,13,00,17.00
2016,05,05,13,01,17.10
2016,05,05,13,02,17.20
2016,05,05,13,03,17.20
2016,05,05,13,04,17.30
2016,05,05,13,05,17.30
2016,05,05,13,06,17.40
2016,05,05,13,07,17.40
2016,05,05,13,08,17.40
2016,05,05,13,09,17.40
2016,05,05,13,10,17.40
2016,05,05,13,11,17.30
2016,05,05,13,12,17.30
2016,05,05,13,13,17.20
2016,05,05,13,14,17.20
2016,05,05,13,15,17.10
2016,05,05,13,16,17.10
2016,05,05,13,17,17.10
2016,05,05,13,18,17.10
2016,05,05,13,19,17.10
2016,05,05,13,20,17.10
2016,05,05,13,21,17.10
2016,05,05,13,22,17.10
2016,05,05,13,23,17.10
2016,05,05,13,24,17.10
2016,05,05,13,25,17.20
2016,05,05,13,26,17.20
2016,05,05,13,27,17.30
2016,05,05,13,28,17.40
2016,05,05,13,29,17.50
2016,05,05,13,30,17.60
2016,05,05,13,31,17.70
2016,05,05,13,32,17.70
2016,05,05,13,33,17.70
2016,05,05,13,34,17.70
2016,05,05,13,35,17.70
2016,05,05,13,36,17.60
2016,05,05,13,37,17.60
2016,05,05,13,38,17.60
2016,05,05,13,39,17.60
2016,05,05,13,40,17.60
2016,05,05,13,41,17.60
2016,05,05,13,42,17.60
2016,05,05,13,43,17.60
2016,05,05,13,44,17.70
2016,05,05,13,45,17.70
2016,05,05,13,46,17.60
2016,05,05,13,47,17.60
2016,05,05,13,48,17.50
2016,05,05,13,49,17.40
2016,05,05,13,50,17.40
2016,05,05,13,51,17.50
2016,05,05,13,52,17.50
2016,05,05,13,53,17.60
2016,05,05,13,54,17.60
2016,05,05,13,55,17.60
2016,05,05,13,56,17.70
2016,05,05,13,57,17.70
2016,05,05,13,58,17.80
2016,05,05,13,59,17.80
2016,05,05,14,00,17.80
2016,05,05,14,01,17.80
2016,05,05,14,02,17.90
2016,05,05,14,03,17.90
2016,05,05,14,04,18.00
2016,05,05,14,05,18.00
2016,05,05,14,06,18.10
2016,05,05,14,07,18.20
2016,05,05,14,08,18.20
2016,05,05,14,09,18.20
2016,05,05,14,10,18.20
2016,05,05,14,11,18.20
2016,05,05,14,12,18.30
2016,05,05,14,13,18.30
2016,05,05,14,14,18.30
2016,05,05,14,15,18.40
2016,05,05,14,16,18.40
2016,05,05,14,17,18.40
2016,05,05,14,18,18.40
2016,05,05,14,19,18.50
2016,05,05,14,20,18.60
2016,05,05,14,21,18.70
2016,05,05,14,22,18.70
2016,05,05,14,23,18.80
2016,05,05,14,24,18.80
2016,05,05,14,25,18.80
2016,05,05,14,26,18.80
2016,05,05,14,27,18.80
2016,05,05,14,28,18.90
2016,05,05,14,29,18.80
2016,05,05,14,30,18.80
2016,05,05,14,31,18.80
2016,05,05,14,32,18.80
2016,05,05,14,33,18.80
2016,05,05,14,34,18.80
2016,05,05,14,35,18.80
2016,05,05,14,36,18.80
2016,05,05,14,37,18.90
2016,05,05,14,38,19.00
2016,05,05,14,39,19.10
2016,05,05,14,40,19.20
2016,05,05,14,41,19.30
2016,05,05,14,42,19.40
2016,05,05,14,43,19.50
2016,05,05,14,44,19.50
2016,05,05,14,45,19.60
2016,05,05,14,46,19.70
2016,05,05,14,47,19.70
2016,05,05,14,48,19.70
2016,05,05,14,49,19.70
2016,05,05,14,50,19.70
2016,05,05,14,51,19.60
2016,05,05,14,52,19.60
2016,05,05,14,53,19.60
2016,05,05,14,54,19.60
2016,05,05,14,55,19.60
2016,05,05,14,56,19.70
2016,05,05,14,57,19.70
2016,05,05,14,58,19.70
2016,05,05,14,59,19.70
2016,05,05,15,00,19.70
2016,05,05,15,01,19.80
2016,05,05,15,02,19.80
2016,05,05,15,03,19.80
2016,05,05,15,04,19.80
2016,05,05,15,05,19.90
2016,05,05,15,06,20.00
2016,05,05,15,07,20.00
2016,05,05,15,08,20.00
2016,05,05,15,09,20.00
2016,05,05,15,10,20.00
2016,05,05,15,11,20.00
2016,05,05,15,12,20.00
2016,05,05,15,13,20.00
2016,05,05,15,14,20.00
2016,05,05,15,15,20.00
2016,05,05,15,16,20.00
2016,05,05,15,17,20.10
2016,05,05,15,18,20.10
2016,05,05,15,19,20.20
2016,05,05,15,20,20.20
2016,05,05,15,21,20.20
2016,05,05,15,22,20.20
2016,05,05,15,23,20.20
2016,05,05,15,24,20.20
2016,05,05,15,25,20.10
2016,05,05,15,26,20.10
2016,05,05,15,27,20.10
2016,05,05,15,28,20.10
2016,05,05,15,29,20.10
2016,05,05,15,30,20.10
2016,05,05,15,31,20.10
2016,05,05,15,32,20.10
2016,05,05,15,33,20.20
2016,05,05,15,34,20.20
2016,05,05,15,35,20.30
2016,05,05,15,36,20.40
2016,05,05,15,37,20.40
2016,05,05,15,38,20.50
2016,05,05,15,39,20.60
2016,05,05,15,40,20.60
2016,05,05,15,41,20.60
2016,05,05,15,42,20.60
2016,05,05,15,43,20.60
2016,05,05,15,44,20.50
2016,05,05,15,45,20.60
2016,05,05,15,46,20.60
2016,05,05,15,47,20.60
2016,05,05,15,48,20.50
2016,05,05,15,49,20.50
2016,05,05,15,50,20.50
2016,05,05,15,51,20.50
2016,05,05,15,52,20.60
2016,05,05,15,53,20.60
2016,05,05,15,54,20.70
2016,05,05,15,55,20.70
2016,05,05,15,56,20.70
2016,05,05,15,57,20.80
2016,05,05,15,58,20.90
2016,05,05,15,59,21.00
2016,05,05,16,00,21.00
2016,05,05,16,01,21.00
2016,05,05,16,02,21.00
2016,05,05,16,03,21.00
2016,05,05,16,04,21.00
2016,05,05,16,05,21.10
2016,05,05,16,06,21.10
2016,05,05,16,07,21.10
2016,05,05,16,08,21.10
2016,05,05,16,09,21.10
2016,05,05,16,10,21.20
2016,05,05,16,11,21.20
2016,05,05,16,12,21.20
2016,05,05,16,13,21.20
2016,05,05,16,14,21.20
2016,05,05,16,15,21.30
2016,05,05,16,16,21.20
2016,05,05,16,17,21.20
2016,05,05,16,18,21.20
2016,05,05,16,19,21.20
2016,05,05,16,20,21.20
2016,05,05,16,21,21.20
2016,05,05,16,22,21.20
2016,05,05,16,23,21.20
2016,05,05,16,24,21.20
2016,05,05,16,25,21.30
2016,05,05,16,26,21.30
2016,05,05,16,27,21.30
2016,05,05,16,28,21.30
2016,05,05,16,29,21.30
2016,05,05,16,30,21.30
2016,05,05,16,31,21.30
2016,05,05,16,32,21.40
2016,05,05,16,33,21.50
2016,05,05,16,34,21.50
2016,05,05,16,35,21.60
2016,05,05,16,36,21.70
2016,05,05,16,37,21.70
2016,05,05,16,38,21.70
2016,05,05,16,39,21.70
2016,05,05,16,40,21.70
2016,05,05,16,41,21.70
2016,05,05,16,42,21.70
2016,05,05,16,43,21.60
2016,05,05,16,44,21.60
2016,05,05,16,45,21.60
2016,05,05,16,46,21.60
2016,05,05,16,47,21.60
2016,05,05,16,48,21.70
2016,05,05,16,49,21.70
2016,05,05,16,50,21.70
2016,05,05,16,51,21.70
2016,05,05,16,52,21.80
2016,05,05,16,53,21.70
2016,05,05,16,54,21.80
2016,05,05,16,55,21.80
2016,05,05,16,56,21.80
2016,05,05,16,57,21.80
2016,05,05,16,58,21.70
2016,05,05,16,59,21.80
2016,05,05,17,00,21.70
2016,05,05,17,01,21.70
2016,05,05,17,02,21.70
2016,05,05,17,03,21.80
2016,05,05,17,04,21.80
2016,05,05,17,05,21.90
2016,05,05,17,06,21.90
2016,05,05,17,07,21.90
2016,05,05,17,08,22.00
2016,05,05,17,09,21.90
2016,05,05,17,10,21.90
2016,05,05,17,11,21.90
2016,05,05,17,12,21.90
2016,05,05,17,13,21.90
2016,05,05,17,14,22.00
2016,05,05,17,15,22.00
2016,05,05,17,16,21.90
2016,05,05,17,17,21.90
2016,05,05,17,18,22.00
2016,05,05,17,19,22.00
2016,05,05,17,20,22.10
2016,05,05,17,21,22.10
2016,05,05,17,22,22.10
2016,05,05,17,23,22.10
2016,05,05,17,24,22.10
2016,05,05,17,25,22.10
2016,05,05,17,26,22.00
2016,05,05,17,27,22.00
2016,05,05,17,28,22.00
2016,05,05,17,29,22.00
2016,05,05,17,30,22.00
2016,05,05,17,31,22.00
2016,05,05,17,32,22.00
2016,05,05,17,33,22.00
2016,05,05,17,34,22.00
2016,05,05,17,35,21.90
2016,05,05,17,36,21.90